[[{"header":{"parameterUnit":"m.s-1","parameterCategory":2,"la1":30.2992,"la2":30.254,"lo1":-89.0895,"lo2":-89.0443,"dy":0.0025,"dx":0.0025,"nx":19,"ny":19,"refTime":"2026-04-30T03:00:00:Z","depth":"0","parameterNumber":2,"parameterNumberName":"U-component_of_CURRENTS"},"data":[0,0,0,0.2497,0.2501,0.268,0.268,0.2891,0.2893,0,0,0,0,0,0,0,0,0,0,0,0.2421,0.2422,0.2497,0.2501,0.268,0.268,0.2891,0.2893,0,0,0,0,0,0,0,0,0,0,0,0.2421,0.2421,0.2423,0.2502,0.2679,0.2681,0.289,0.2761,0,0,0,0,0,0,0,0,0,0,0.259,0.2525,0.2421,0.2423,0.2503,0.2679,0.2681,0.2755,0.2769,0.2804,0,0.2822,0,0.2868,0.2906,0.2907,0,0,0,0.2506,0.2513,0.2559,0.2423,0.2505,0.2679,0.26,0.2763,0.2779,0.2822,0.2825,0.2834,0.2871,0.2907,0.2908,0.3098,0.3099,0,0,0.2496,0.246,0.2548,0.2569,0.254,0.2595,0.2606,0.2773,0.2785,0.2826,0.2839,0.2875,0.2909,0.291,0.3098,0.3098,0,0,0,0.2465,0.2453,0.2496,0.2559,0.2597,0.26,0.2613,0.2777,0.2791,0.2842,0.2877,0.291,0.2912,0.3097,0.3098,0.3076,0,0,0,0.2459,0.2435,0.2491,0.2473,0.2593,0.2694,0.2613,0.2779,0.28,0.2876,0.291,0.2914,0.3096,0.3097,0.3075,0.3043,0,0,0,0.2415,0.2432,0.2447,0.2471,0.2548,0.2692,0.2716,0.2785,0.2822,0.2907,0.2915,0.3096,0.3097,0.3074,0.3043,0.303,0,0,0,0.2379,0.2401,0.2446,0.2497,0.2546,0.2667,0.2716,0.2822,0.2895,0.2911,0.3096,0.3098,0.3074,0.3043,0.303,0.2899,0.2888,0,0,0.2385,0.2401,0.2435,0.248,0.2582,0.2643,0.2757,0.287,0.2927,0.3039,0.3045,0.3075,0.3043,0.303,0.2981,0.2966,0,0,0,0.2424,0.2437,0.2481,0.2554,0.2652,0.2735,0.2849,0.2904,0.3018,0.2978,0.311,0.3091,0.3083,0.3006,0.2996,0.29,0.3104,0.3104,0.3104,0.2375,0.2443,0.2494,0.2584,0.2668,0.2815,0.2886,0.2981,0.3041,0.309,0.31,0.3109,0.303,0.302,0.2924,0.3143,0.3143,0.3143,0.3143,0.2363,0.2388,0.2477,0.2539,0.2652,0.2749,0.2921,0.2983,0.3085,0.3123,0.3116,0.302,0.3006,0.2909,0.3142,0.3142,0.3142,0.3142,0.3142,0.2315,0.2331,0.2366,0.245,0.2547,0.2698,0.2795,0.2933,0.3042,0.3065,0.2984,0.2982,0.2871,0.3065,0.3065,0.3065,0.3065,0.3065,0.3065,0.2241,0.2279,0.2282,0.2366,0.2407,0.2521,0.272,0.2793,0.2879,0.2939,0.2939,0.2859,0.3085,0.3057,0.3062,0.3062,0.3063,0.3063,0.3063,0.2189,0.2194,0.2191,0.2207,0.2289,0.2312,0.2509,0.2602,0.2689,0.2689,0.2672,0.2876,0.2863,0.2871,0.2839,0.2786,0.2787,0.2786,0.2786,0.2137,0.2147,0.2112,0.2105,0.2136,0.2218,0.2204,0.2325,0.2434,0.2445,0.2507,0.2485,0.2501,0.2468,0.2485,0.2446,0.2295,0.2295,0.2294,0.2101,0.2095,0.2044,0.2037,0.2055,0.2082,0.2014,0.2013,0.216,0.2271,0.2401,0.2422,0.2393,0.2425,0.2379,0.2411,0.2352,0,0]},{"header":{"parameterUnit":"m.s-1","parameterCategory":2,"la1":30.2992,"la2":30.254,"lo1":-89.0895,"lo2":-89.0443,"dy":0.0025,"dx":0.0025,"nx":19,"ny":19,"refTime":"2026-04-30T03:00:00:Z","depth":"0","parameterNumber":3,"parameterNumberName":"V-component_of_CURRENTS"},"data":[0,0,0,0.0395,0.0395,0.0443,0.0443,0.0502,0.0503,0,0,0,0,0,0,0,0,0,0,0,0.0385,0.0385,0.0395,0.0396,0.0443,0.0443,0.0502,0.0503,0,0,0,0,0,0,0,0,0,0,0,0.0385,0.0385,0.0386,0.0396,0.0443,0.0443,0.0502,0.0469,0,0,0,0,0,0,0,0,0,0,0.0424,0.0415,0.0385,0.0386,0.0396,0.0442,0.0443,0.0468,0.0471,0.0478,0,0.0485,0,0.0488,0.0506,0.0506,0,0,0,0.0405,0.0412,0.0419,0.0386,0.0396,0.0442,0.0424,0.047,0.0474,0.0482,0.0486,0.0488,0.0489,0.0506,0.0506,0.0613,0.0614,0,0,0.0402,0.04,0.0416,0.0421,0.0408,0.0422,0.0425,0.0472,0.048,0.0486,0.0489,0.049,0.0507,0.0507,0.0613,0.0614,0,0,0,0.0389,0.0398,0.0404,0.0419,0.0424,0.0424,0.0427,0.0478,0.0478,0.049,0.0491,0.0507,0.0507,0.0612,0.0613,0.0709,0,0,0,0.0387,0.0389,0.0403,0.0403,0.0423,0.0452,0.0432,0.0475,0.048,0.0491,0.0507,0.0508,0.0611,0.0612,0.0704,0.0753,0,0,0,0.0383,0.0389,0.0393,0.0403,0.0418,0.0451,0.0455,0.0477,0.0481,0.0506,0.0508,0.061,0.0612,0.07,0.0746,0.079,0,0,0,0.0381,0.0415,0.0393,0.0442,0.0417,0.0487,0.0455,0.0506,0.0534,0.0507,0.0611,0.0613,0.0699,0.0741,0.0786,0.0827,0.085,0,0,0.0427,0.042,0.0454,0.0435,0.0517,0.0481,0.0576,0.0589,0.0565,0.0594,0.0597,0.0706,0.0745,0.079,0.094,0.096,0,0,0,0.0472,0.0496,0.0518,0.0558,0.0586,0.0637,0.0637,0.0646,0.0686,0.0587,0.0719,0.0741,0.0766,0.0782,0.0798,0.0739,0.0622,0.0622,0.0622,0.0531,0.0557,0.0628,0.0667,0.071,0.0751,0.0794,0.0805,0.0763,0.0798,0.0829,0.0943,0.0963,0.0975,0.0915,0.0836,0.0836,0.0836,0.0837,0.0617,0.0665,0.0708,0.0782,0.0829,0.0899,0.0952,0.0943,0.0996,0.0937,0.0955,0.0895,0.0998,0.0927,0.0843,0.0842,0.0841,0.084,0.084,0.0658,0.0687,0.0729,0.0835,0.0938,0.0994,0.1118,0.1125,0.1091,0.1126,0.1111,0.1109,0.1036,0.1125,0.1125,0.1126,0.1126,0.1126,0.1127,0.0675,0.0723,0.0796,0.0899,0.0979,0.1106,0.1216,0.1265,0.1273,0.123,0.123,0.1083,0.103,0.1006,0.1134,0.1132,0.1131,0.1131,0.113,0.0729,0.0739,0.0849,0.0928,0.1119,0.1282,0.1363,0.1459,0.1464,0.1464,0.1274,0.1276,0.1245,0.1232,0.1212,0.1385,0.1385,0.1385,0.1385,0.0753,0.077,0.0914,0.1046,0.1223,0.1371,0.1568,0.1622,0.1507,0.1421,0.1345,0.1282,0.1274,0.1239,0.1225,0.1203,0.137,0.1369,0.1369,0.0793,0.0832,0.094,0.1072,0.1276,0.1478,0.1668,0.175,0.1537,0.1359,0.126,0.1261,0.1153,0.1145,0.1072,0.1057,0.1013,0,0]}],[{"header":{"parameterUnit":"m.s-1","parameterCategory":2,"la1":30.2992,"la2":30.254,"lo1":-89.0895,"lo2":-89.0443,"dy":0.0025,"dx":0.0025,"nx":19,"ny":19,"refTime":"2026-04-30T03:00:00:Z","depth":"2","parameterNumber":2,"parameterNumberName":"U-component_of_CURRENTS"},"data":[0,0,0,0.2155,0.2157,0.228,0.228,0.2463,0.2464,0,0,0,0,0,0,0,0,0,0,0,0.2104,0.2105,0.2155,0.2158,0.228,0.228,0.2462,0.2464,0,0,0,0,0,0,0,0,0,0,0,0.2104,0.2105,0.2105,0.2158,0.228,0.228,0.2462,0.2365,0,0,0,0,0,0,0,0,0,0,0.2244,0.2197,0.2104,0.2105,0.2159,0.2279,0.2281,0.236,0.2371,0.2412,0,0.2422,0,0.245,0.2476,0.2477,0,0,0,0.2165,0.2188,0.2215,0.2105,0.216,0.2279,0.2227,0.2366,0.2378,0.2427,0.2425,0.2432,0.2453,0.2477,0.2478,0.266,0.266,0,0,0.2158,0.2138,0.2206,0.2222,0.2181,0.2223,0.223,0.2373,0.2386,0.2425,0.2436,0.2456,0.2479,0.248,0.2659,0.266,0,0,0,0.2134,0.2133,0.2156,0.2214,0.2236,0.2226,0.2235,0.238,0.2385,0.2438,0.2458,0.248,0.2482,0.2658,0.2659,0.2682,0,0,0,0.213,0.2119,0.2153,0.2145,0.2233,0.2309,0.2238,0.2375,0.2392,0.2457,0.248,0.2484,0.2658,0.2659,0.268,0.2629,0,0,0,0.2101,0.2117,0.2125,0.2143,0.2193,0.2306,0.2321,0.2379,0.2405,0.2477,0.2484,0.2657,0.2659,0.2678,0.2628,0.2617,0,0,0,0.2084,0.2095,0.2125,0.2155,0.2191,0.2275,0.232,0.24,0.246,0.2481,0.2658,0.2659,0.2678,0.2627,0.2617,0.2477,0.2467,0,0,0.2086,0.2095,0.2114,0.2144,0.2219,0.2259,0.2359,0.2454,0.2499,0.2612,0.2617,0.2681,0.2628,0.2617,0.2563,0.2549,0,0,0,0.2108,0.2115,0.2146,0.2197,0.2267,0.2337,0.2434,0.249,0.2608,0.2542,0.2705,0.2669,0.2662,0.2579,0.257,0.2666,0.2666,0.2666,0.2666,0.2077,0.2122,0.2158,0.2223,0.2285,0.241,0.2475,0.2569,0.2637,0.2696,0.2709,0.2736,0.2652,0.2642,0.2766,0.2766,0.2766,0.2766,0.2766,0.2063,0.2075,0.2143,0.2186,0.2281,0.237,0.2527,0.2598,0.2713,0.2753,0.2747,0.2632,0.2632,0.2768,0.2768,0.2767,0.2767,0.2767,0.2767,0.2026,0.2034,0.2062,0.2124,0.2209,0.2341,0.2431,0.2572,0.2681,0.271,0.2618,0.2616,0.27,0.2728,0.2728,0.2728,0.2728,0.2727,0.2727,0.1968,0.1997,0.2,0.2066,0.2104,0.2205,0.2382,0.245,0.2527,0.2585,0.2584,0.2721,0.2723,0.2697,0.2724,0.2724,0.2725,0.2725,0.2725,0.1918,0.1929,0.1925,0.194,0.201,0.2025,0.2194,0.2262,0.2343,0.2332,0.2515,0.2521,0.2481,0.2488,0.2456,0.2419,0.2419,0.2419,0.2419,0.1874,0.1883,0.1853,0.1847,0.1872,0.1938,0.1902,0.1968,0.2116,0.2168,0.2179,0.2172,0.219,0.2133,0.2148,0.211,0.1983,0.1982,0.1981,0.1839,0.1835,0.179,0.1784,0.1796,0.1809,0.1716,0.1635,0.1741,0.1966,0.2125,0.2385,0.2406,0.2422,0.2362,0.2376,0.2325,0,0]},{"header":{"parameterUnit":"m.s-1","parameterCategory":2,"la1":30.2992,"la2":30.254,"lo1":-89.0895,"lo2":-89.0443,"dy":0.0025,"dx":0.0025,"nx":19,"ny":19,"refTime":"2026-04-30T03:00:00:Z","depth":"2","parameterNumber":3,"parameterNumberName":"V-component_of_CURRENTS"},"data":[0,0,0,0.0238,0.0238,0.0264,0.0265,0.0291,0.0291,0,0,0,0,0,0,0,0,0,0,0,0.0237,0.0237,0.0238,0.0238,0.0264,0.0265,0.0291,0.0291,0,0,0,0,0,0,0,0,0,0,0,0.0237,0.0237,0.0237,0.0238,0.0264,0.0265,0.0291,0.0275,0,0,0,0,0,0,0,0,0,0,0.0251,0.0252,0.0237,0.0237,0.0238,0.0264,0.0265,0.0274,0.0276,0.0274,0,0.0279,0,0.0278,0.0292,0.0292,0,0,0,0.0247,0.0251,0.0251,0.0237,0.0238,0.0264,0.0255,0.0275,0.0277,0.0276,0.0279,0.028,0.0278,0.0292,0.0292,0.0354,0.0354,0,0,0.0246,0.0248,0.0249,0.0252,0.0246,0.0254,0.0256,0.0277,0.0283,0.0279,0.0281,0.0279,0.0292,0.0292,0.0353,0.0354,0,0,0,0.0236,0.0247,0.0247,0.0251,0.0252,0.0255,0.0257,0.0282,0.028,0.0281,0.0279,0.0292,0.0292,0.0353,0.0353,0.0455,0,0,0,0.0235,0.024,0.0247,0.0249,0.0252,0.0269,0.0262,0.0279,0.0281,0.0279,0.0292,0.0292,0.0352,0.0353,0.0451,0.0493,0,0,0,0.0235,0.024,0.0242,0.0249,0.0255,0.0268,0.0269,0.028,0.0279,0.0292,0.0292,0.0351,0.0353,0.0448,0.0486,0.0519,0,0,0,0.0239,0.0266,0.0243,0.0278,0.0254,0.0301,0.0268,0.0302,0.0318,0.0292,0.0352,0.0353,0.0446,0.0482,0.0515,0.0534,0.0553,0,0,0.0279,0.0271,0.0294,0.0273,0.0337,0.0298,0.0371,0.037,0.0337,0.0344,0.0346,0.0453,0.0486,0.0518,0.0616,0.0632,0,0,0,0.0311,0.033,0.0346,0.0373,0.0388,0.0426,0.0415,0.0416,0.0437,0.035,0.0453,0.047,0.0487,0.0491,0.0504,0.036,0.036,0.036,0.036,0.0368,0.0382,0.044,0.0466,0.0493,0.0517,0.0547,0.0543,0.0503,0.0529,0.0554,0.0649,0.0655,0.0665,0.0555,0.0555,0.0555,0.0556,0.0556,0.0444,0.048,0.0508,0.0569,0.0601,0.0653,0.068,0.067,0.0702,0.065,0.0661,0.0599,0.0686,0.0564,0.0563,0.0561,0.0561,0.056,0.0559,0.0482,0.0506,0.054,0.0626,0.0708,0.0745,0.0838,0.0834,0.0793,0.082,0.0788,0.0785,0.07,0.0819,0.082,0.082,0.082,0.0821,0.0821,0.0503,0.0543,0.0608,0.0693,0.0762,0.0863,0.0935,0.0963,0.0945,0.0898,0.0897,0.0737,0.0728,0.0714,0.0826,0.0825,0.0825,0.0824,0.0824,0.0551,0.0564,0.0661,0.0731,0.0894,0.1025,0.1073,0.1118,0.1106,0.1089,0.0931,0.0926,0.0888,0.0876,0.0864,0.1009,0.1009,0.1009,0.1009,0.0575,0.0591,0.072,0.0838,0.0988,0.1105,0.1241,0.1237,0.1141,0.1049,0.1047,0.0999,0.0991,0.0954,0.094,0.0927,0.1089,0.1089,0.1089,0.0609,0.0645,0.0742,0.0861,0.1035,0.1195,0.1322,0.1305,0.1129,0.109,0.1041,0.1018,0.094,0.0931,0.0861,0.0844,0.0818,0,0]}],[{"header":{"parameterUnit":"m.s-1","parameterCategory":2,"la1":30.2992,"la2":30.254,"lo1":-89.0895,"lo2":-89.0443,"dy":0.0025,"dx":0.0025,"nx":19,"ny":19,"refTime":"2026-04-30T03:00:00:Z","depth":"4","parameterNumber":2,"parameterNumberName":"U-component_of_CURRENTS"},"data":[0,0,0,0.1441,0.1442,0.1486,0.1486,0.1505,0.1505,0,0,0,0,0,0,0,0,0,0,0,0.144,0.144,0.1441,0.1443,0.1486,0.1486,0.1505,0.1505,0,0,0,0,0,0,0,0,0,0,0,0.1439,0.144,0.1441,0.1443,0.1486,0.1486,0.1505,0.148,0,0,0,0,0,0,0,0,0,0,0.1441,0.1447,0.144,0.1441,0.1443,0.1486,0.1486,0.1479,0.1481,0.1478,0,0.1504,0,0.1503,0.1507,0.1507,0,0,0,0.1435,0.1446,0.1457,0.1441,0.1444,0.1486,0.1464,0.148,0.1483,0.1481,0.1504,0.1505,0.1503,0.1507,0.1507,0.1573,0.1574,0,0,0.1432,0.1441,0.1456,0.146,0.148,0.1463,0.1466,0.1482,0.1495,0.1504,0.1505,0.1503,0.1507,0.1507,0.1573,0.1574,0,0,0,0.1431,0.144,0.1452,0.1459,0.1469,0.1464,0.1467,0.1494,0.1499,0.1506,0.1504,0.1507,0.1507,0.1572,0.1573,0.1592,0,0,0,0.1429,0.1439,0.1451,0.1456,0.1469,0.1487,0.1479,0.1499,0.15,0.1504,0.1507,0.1507,0.1572,0.1573,0.159,0.1608,0,0,0,0.1433,0.1439,0.1452,0.1457,0.1477,0.1486,0.1492,0.1499,0.1499,0.1507,0.1507,0.1571,0.1573,0.1588,0.1605,0.1652,0,0,0,0.1428,0.1442,0.1453,0.1467,0.1477,0.1484,0.1492,0.151,0.152,0.1507,0.1572,0.1573,0.1588,0.1603,0.165,0.1437,0,0,0,0.1432,0.1444,0.1447,0.1456,0.145,0.1476,0.1499,0.1527,0.1541,0.156,0.1562,0.1591,0.1605,0.1652,0.1523,0,0,0,0,0.1437,0.1448,0.1444,0.1454,0.1457,0.1487,0.1519,0.1532,0.158,0.1556,0.1615,0.1624,0.1652,0.1522,0.158,0.158,0.158,0.1579,0.1579,0.144,0.1439,0.144,0.1451,0.1468,0.1507,0.1542,0.1582,0.1589,0.1624,0.1656,0.1729,0.1593,0.167,0.1671,0.1671,0.1671,0.1671,0.1671,0.1428,0.1417,0.1446,0.1458,0.149,0.1533,0.1585,0.1619,0.1697,0.1679,0.1706,0.1571,0.1673,0.1673,0.1673,0.1672,0.1672,0.1672,0.1672,0.1399,0.1392,0.1431,0.1462,0.1511,0.1569,0.1612,0.1683,0.1732,0.1774,0.1666,0.176,0.174,0.1806,0.1807,0.1807,0.1807,0.1807,0.1807,0.1343,0.1372,0.1402,0.1458,0.1493,0.1556,0.1642,0.1667,0.1745,0.1684,0.1806,0.1775,0.1771,0.175,0.1812,0.1811,0.1811,0.181,0.181,0.1277,0.1318,0.1341,0.1382,0.1445,0.1466,0.1579,0.1578,0.1613,0.1596,0.1631,0.1638,0.1619,0.1619,0.1591,0.1609,0.1606,0.1603,0,0.1231,0.1251,0.1272,0.1296,0.1315,0.1393,0.1364,0.1407,0.1478,0.1455,0.163,0.1671,0.1674,0.1652,0.1648,0.1614,0,0,0,0.1189,0.1203,0.119,0.1226,0.1235,0.1258,0.1342,0.131,0.149,0.141,0.1541,0.1557,0.165,0.1826,0.1815,0.181,0.1775,0,0]},{"header":{"parameterUnit":"m.s-1","parameterCategory":2,"la1":30.2992,"la2":30.254,"lo1":-89.0895,"lo2":-89.0443,"dy":0.0025,"dx":0.0025,"nx":19,"ny":19,"refTime":"2026-04-30T03:00:00:Z","depth":"4","parameterNumber":3,"parameterNumberName":"V-component_of_CURRENTS"},"data":[0,0,0,0.0174,0.0175,0.0201,0.0201,0.0203,0.0203,0,0,0,0,0,0,0,0,0,0,0,0.0172,0.0172,0.0174,0.0175,0.0201,0.0201,0.0203,0.0203,0,0,0,0,0,0,0,0,0,0,0,0.0172,0.0172,0.0173,0.0175,0.0201,0.0201,0.0203,0.0193,0,0,0,0,0,0,0,0,0,0,0.0172,0.0176,0.0172,0.0173,0.0175,0.0201,0.0201,0.0193,0.0193,0.018,0,0.0187,0,0.0188,0.0202,0.0202,0,0,0,0.0181,0.0176,0.0176,0.0173,0.0175,0.0201,0.0191,0.0193,0.0194,0.0181,0.0187,0.0187,0.0188,0.0202,0.0202,0.0216,0.0216,0,0,0.0179,0.0182,0.0176,0.0177,0.0184,0.019,0.0192,0.0194,0.0199,0.0187,0.0187,0.0188,0.0202,0.0202,0.0215,0.0216,0,0,0,0.0171,0.0181,0.0182,0.0177,0.018,0.0191,0.0193,0.0199,0.0198,0.0187,0.0188,0.0202,0.0201,0.0215,0.0215,0.0266,0,0,0,0.017,0.0175,0.0182,0.0184,0.018,0.0195,0.0198,0.0198,0.0199,0.0188,0.0202,0.0201,0.0215,0.0215,0.0264,0.0303,0,0,0,0.017,0.0175,0.0178,0.0184,0.0191,0.0195,0.0195,0.0199,0.0198,0.0202,0.0201,0.0214,0.0215,0.0263,0.0299,0.0323,0,0,0,0.0172,0.0192,0.0178,0.0204,0.0191,0.0223,0.0195,0.0218,0.0226,0.0202,0.0215,0.0215,0.0262,0.0297,0.032,0.0324,0,0,0,0.02,0.0196,0.0212,0.0199,0.0239,0.0219,0.0259,0.0254,0.0229,0.0212,0.0212,0.0265,0.0299,0.0322,0.0363,0,0,0,0,0.0222,0.0237,0.0246,0.0264,0.0273,0.0294,0.0285,0.0272,0.0266,0.0234,0.0264,0.0284,0.0297,0.0292,0.0219,0.0219,0.0218,0.0218,0.0218,0.0262,0.027,0.0309,0.0323,0.034,0.0347,0.0356,0.0335,0.0303,0.0304,0.0325,0.0379,0.0375,0.0314,0.0314,0.0315,0.0315,0.0315,0.0315,0.0316,0.034,0.0358,0.0402,0.0413,0.0443,0.0426,0.0407,0.0403,0.0364,0.0374,0.0346,0.032,0.0319,0.0318,0.0318,0.0317,0.0317,0.0317,0.0343,0.0357,0.039,0.0451,0.0502,0.0515,0.055,0.0523,0.0467,0.0478,0.0464,0.0417,0.0414,0.0481,0.0482,0.0482,0.0482,0.0482,0.0482,0.0353,0.0385,0.0441,0.0507,0.056,0.062,0.063,0.062,0.0573,0.0538,0.0502,0.0435,0.0429,0.0424,0.0487,0.0486,0.0485,0.0485,0.0485,0.0379,0.0397,0.0476,0.0538,0.0658,0.0701,0.0719,0.0686,0.0675,0.0638,0.0556,0.0552,0.0535,0.0527,0.0524,0.062,0.062,0.062,0,0.039,0.0407,0.0511,0.0607,0.0705,0.0748,0.0759,0.074,0.0667,0.066,0.0656,0.0565,0.056,0.0541,0.0535,0.0531,0,0,0,0.0409,0.0438,0.0515,0.0613,0.0728,0.0753,0.0762,0.0739,0.069,0.0667,0.0628,0.0626,0.0555,0.05,0.0463,0.0456,0.0445,0,0]}]]